Vertical_Velocity
-1 3 1 3 2 5 2 -0 3 2 3 2 -0 1 -0 0 1 0 1 1 -1 1 0 -0 0 -0 0 -0 -0 -1 -0 -1 -2 -3 1 0 0 -1 -1 0 1 -2 0 -1 -1
-3 -1 2 3 1 4 5 0 2 1 2 2 1 -0 0 1 0 1 0 0 0 1 -1 -0 0 0 -0 -0 -1 -1 -1 -1 -3 -1 2 -0 -1 -2 -1 0 1 1 1 1 1
-1 -3 -1 4 2 2 4 -1 3 1 1 1 0 1 2 2 1 0 0 -0 0 0 -0 0 -0 1 0 -0 -1 -1 -0 -1 -2 1 1 0 1 0 -1 -1 -0 0 1 2 1
8 -3 4 2 3 3 3 -0 2 1 0 1 -0 1 1 1 -1 -0 0 0 0 0 0 1 0 0 0 -0 -0 0 -1 -3 1 1 0 -1 -1 1 1 -0 -1 -1 -2 -1 -1
3 2 3 4 1 4 5 -0 1 -1 0 0 1 1 1 0 -1 1 2 1 -0 1 2 0 1 0 1 -0 -0 -0 -2 -4 2 2 0 0 -0 -1 0 0 1 1 -0 -1 -2
1 4 3 4 -2 6 4 -1 1 1 1 0 2 0 0 -0 4 1 3 1 2 1 1 -0 0 1 1 0 0 -1 -0 -4 4 1 1 0 0 1 0 0 0 1 1 1 1
2 2 2 3 3 5 3 1 -0 1 -0 -1 1 1 0 2 1 -0 1 1 1 0 -0 -0 1 0 -0 1 1 -1 -0 -3 -1 0 1 1 2 2 0 0 0 1 0 0 0
-0 2 2 -5 6 4 0 0 0 1 -0 -0 1 1 2 1 1 1 2 1 1 0 1 -0 0 0 -0 -0 1 -0 -1 -2 -1 -1 2 1 2 1 1 -0 -1 -1 -2 -0 -1
2 2 -6 6 6 4 0 0 1 -1 -0 -0 1 1 1 1 -0 -0 -0 0 1 1 1 -0 0 1 0 1 -1 -0 -0 -1 -0 -2 -1 -0 1 0 1 0 -0 0 0 0 0
3 1 4 5 5 0 1 1 2 -0 -1 0 1 -2 -0 3 2 1 1 1 0 0 0 -1 -0 0 -0 -0 1 1 -1 -1 -1 5 -1 -1 -1 1 1 1 -0 -2 0 -1 -1
-1 0 5 5 2 2 1 1 -1 -0 1 3 2 1 1 2 0 1 1 1 1 1 1 -0 -1 0 -0 -1 0 0 0 -1 2 1 -1 -1 -1 1 -0 -1 1 -2 -1 -1 -1
-5 -4 0 2 -0 1 1 0 2 2 -0 -0 0 0 1 1 0 -0 -0 -1 -1 -1 -0 -1 -1 -1 -1 -1 -1 0 1 0 1 1 0 -2 -0 -0 -1 1 1 -2 -1 -0 -1
1 1 -0 -2 -2 -1 -0 0 -0 1 0 0 0 -0 -1 -1 -0 -0 -1 0 -0 -1 -1 -2 -0 -0 -1 0 -1 1 -0 -0 -1 1 0 1 5 -2 0 0 -1 -1 0 -1 -1
1 0 1 1 -0 -1 -1 -2 -1 -1 -1 -1 -1 -1 -0 1 1 0 1 1 -2 0 -1 -1 -1 1 1 1 0 1 -0 -0 0 0 -2 1 2 2 2 -1 1 0 1 0 -0
1 1 2 1 -0 -1 -1 -1 -1 -1 1 -0 0 -0 0 -1 -1 -0 -0 -1 -1 -0 -1 3 0 -0 0 1 1 -0 -0 0 0 -1 -0 3 0 0 -1 0 1 -0 -0 -0 1
0 1 1 1 1 1 2 1 2 2 1 -0 -1 0 -2 -1 -0 1 -1 -0 -0 -0 -0 0 -0 -1 1 1 1 1 0 0 0 -1 1 -0 -0 6 -2 -3 -1 -1 -1 -0 -0
1 -1 -1 -0 -1 1 1 1 -0 -1 1 -0 0 -0 0 -0 -1 -0 1 1 0 1 2 1 0 -1 -0 -1 -1 0 -0 -2 -2 2 -0 1 1 -3 1 -4 -3 -2 -1 -1 -2
2 1 0 2 1 1 1 1 1 2 1 1 0 1 0 0 -0 1 1 1 1 1 1 1 -1 -0 1 1 1 -1 1 1 -5 0 -6 5 -0 2 -1 -1 -3 -1 -3 -1 -1
0 -0 0 -0 1 1 1 1 2 1 2 1 1 1 1 -0 -0 -1 0 1 1 2 0 -0 0 1 0 1 1 1 1 0 -3 3 -0 -0 6 5 -2 -1 -1 -1 -2 -0 -0
1 -1 -1 -0 -0 0 0 1 -0 -0 0 1 1 1 -0 1 1 1 0 2 1 1 1 1 1 1 -0 1 0 0 1 -1 4 -6 -4 -6 3 3 -0 -2 -2 -3 -2 -1 -3
-1 1 1 0 -0 0 1 1 -1 0 1 1 1 1 0 0 1 1 2 1 1 1 1 2 3 2 1 1 1 1 1 -0 -1 2 -7 -5 2 3 -6 -4 -3 -2 -1 -5 1
0 -1 0 1 1 -0 -0 -0 -0 1 0 0 -0 -0 -0 -0 0 0 0 1 1 0 -0 -0 1 0 0 0 1 1 1 -0 -1 -6 3 -1 6 -7 1 -0 -3 1 -3 -1 -2
2 1 1 1 1 1 1 1 0 -1 -0 1 1 1 1 0 -0 -0 -0 -0 -0 -0 -0 1 1 -2 -0 0 0 -0 1 -1 -2 -1 12 -13 14 1 -5 -5 -5 -2 -3 -4 -3
-0 1 2 2 1 1 0 -0 0 0 0 1 0 1 0 0 0 1 0 1 1 1 0 -1 2 1 1 -0 -1 0 2 -0 0 -1 -5 9 -4 8 -16 -5 0 -3 -1 -5 -3
0 0 0 1 1 1 2 2 2 2 1 1 1 1 1 1 1 0 1 1 2 1 1 -1 2 -1 -0 -1 0 2 0 -1 -1 6 -19 19 -11 3 -4 -4 -2 -5 -5 -2 -1
0 -0 -1 -1 0 1 1 1 -0 -0 -1 -0 -1 -0 0 0 1 0 2 1 2 2 -1 -0 -3 -2 4 1 -2 -0 2 -3 0 8 -10 -4 7 -16 3 2 -3 1 -0 0 -0
-0 0 1 0 -0 -0 -0 1 0 0 1 -0 -1 -2 -1 -1 -0 0 -0 -0 1 0 0 1 -2 -3 1 -2 -1 2 9 1 -2 6 -6 -3 -1 -3 2 5 0 0 -1 -2 0
Height
5719 5730 5741 5753 5766 5778 5791 5804 5814 5824 5833 5842 5850 5857 5863 5868 5873 5878 5882 5887 5890 5894 5897 5900 5903 5905 5907 5908 5909 5910 5912 5912 5912 5911 5911 5912 5912 5913 5913 5912 5912 5912 5910 5908 5905
5712 5725 5736 5749 5762 5774 5787 5801 5812 5822 5831 5839 5847 5854 5860 5866 5871 5876 5881 5884 5888 5891 5895 5897 5900 5902 5904 5906 5907 5908 5908 5909 5909 5907 5908 5909 5908 5908 5909 5909 5909 5908 5907 5905 5903
5711 5723 5735 5748 5761 5773 5786 5800 5811 5821 5830 5838 5846 5853 5858 5864 5870 5874 5878 5883 5886 5889 5892 5895 5897 5900 5902 5903 5904 5905 5906 5906 5905 5905 5906 5906 5905 5905 5904 5903 5902 5903 5902 5901 5899
5713 5725 5737 5749 5761 5774 5787 5800 5811 5821 5829 5837 5845 5852 5858 5863 5869 5872 5876 5881 5884 5887 5890 5893 5895 5897 5899 5900 5901 5902 5902 5902 5903 5902 5903 5903 5902 5902 5901 5900 5899 5898 5897 5896 5894
5720 5730 5741 5752 5765 5776 5789 5802 5812 5821 5829 5836 5844 5851 5857 5862 5866 5871 5875 5879 5882 5885 5887 5890 5892 5895 5896 5898 5899 5899 5899 5899 5900 5900 5899 5899 5899 5899 5898 5897 5896 5895 5893 5892 5891
5728 5736 5746 5757 5769 5779 5791 5804 5813 5822 5830 5837 5844 5850 5856 5861 5866 5869 5873 5877 5880 5883 5885 5887 5889 5892 5894 5895 5896 5895 5896 5895 5896 5896 5895 5895 5896 5895 5895 5894 5893 5892 5890 5889 5888
5737 5744 5753 5763 5774 5784 5796 5806 5815 5823 5831 5838 5844 5849 5854 5860 5863 5868 5871 5875 5878 5880 5882 5885 5887 5889 5891 5892 5892 5892 5893 5892 5891 5892 5893 5892 5892 5891 5891 5890 5889 5888 5887 5885 5884
5746 5753 5761 5772 5779 5790 5800 5809 5817 5825 5832 5839 5844 5849 5853 5859 5863 5867 5870 5873 5876 5878 5881 5883 5884 5886 5887 5889 5889 5890 5889 5889 5888 5888 5889 5889 5888 5887 5887 5886 5885 5883 5882 5880 5878
5756 5763 5772 5778 5786 5795 5804 5812 5819 5827 5833 5839 5845 5849 5853 5857 5861 5864 5868 5871 5874 5876 5879 5880 5882 5883 5885 5886 5886 5886 5886 5885 5885 5885 5884 5884 5884 5883 5882 5881 5880 5878 5876 5875 5873
5767 5773 5779 5785 5792 5800 5808 5814 5821 5828 5834 5839 5844 5850 5853 5857 5860 5863 5866 5870 5872 5874 5877 5878 5879 5881 5882 5882 5883 5882 5882 5882 5882 5883 5881 5880 5880 5879 5877 5876 5874 5873 5871 5868 5866
5776 5780 5786 5792 5799 5805 5812 5818 5825 5830 5835 5841 5845 5849 5852 5856 5859 5862 5865 5868 5870 5873 5875 5876 5877 5878 5878 5878 5878 5878 5879 5878 5879 5879 5878 5876 5876 5874 5872 5871 5869 5867 5865 5863 5861
5783 5788 5793 5798 5804 5809 5815 5821 5828 5834 5838 5841 5845 5849 5852 5855 5858 5861 5864 5867 5869 5871 5872 5874 5874 5875 5875 5875 5875 5875 5875 5875 5875 5875 5874 5873 5872 5870 5867 5865 5863 5861 5859 5857 5854
5788 5793 5799 5805 5809 5814 5819 5824 5828 5833 5838 5842 5846 5849 5852 5855 5857 5860 5863 5864 5866 5868 5869 5870 5871 5870 5870 5871 5871 5871 5871 5870 5870 5870 5870 5868 5868 5865 5863 5860 5858 5856 5853 5851 5848
5792 5797 5803 5808 5814 5818 5822 5827 5831 5835 5840 5844 5846 5849 5852 5854 5856 5858 5860 5862 5863 5864 5864 5865 5866 5866 5866 5867 5867 5867 5866 5866 5865 5865 5864 5863 5863 5861 5858 5855 5852 5849 5847 5844 5841
5796 5801 5807 5812 5816 5821 5825 5828 5833 5837 5841 5845 5846 5849 5850 5853 5855 5856 5857 5858 5859 5860 5861 5862 5861 5861 5862 5862 5862 5862 5862 5861 5860 5859 5859 5858 5856 5855 5852 5848 5845 5843 5840 5837 5833
5803 5808 5812 5816 5819 5822 5825 5829 5832 5837 5839 5842 5844 5846 5849 5850 5852 5853 5853 5854 5855 5856 5856 5857 5857 5857 5858 5858 5857 5857 5856 5855 5854 5854 5853 5851 5849 5847 5845 5842 5839 5836 5832 5828 5823
5810 5813 5816 5819 5822 5825 5827 5831 5835 5836 5840 5842 5843 5844 5845 5847 5848 5849 5849 5850 5851 5851 5852 5852 5853 5853 5854 5854 5853 5852 5851 5849 5849 5848 5846 5844 5842 5839 5835 5832 5830 5827 5823 5818 5813
5814 5816 5818 5820 5822 5825 5827 5831 5833 5835 5836 5838 5839 5841 5842 5843 5843 5844 5845 5846 5846 5847 5848 5848 5849 5849 5849 5849 5848 5847 5846 5844 5841 5840 5838 5836 5833 5830 5827 5821 5818 5815 5811 5806 5801
5815 5817 5819 5821 5822 5824 5827 5829 5830 5832 5833 5834 5836 5837 5838 5839 5840 5840 5841 5842 5842 5843 5844 5843 5844 5843 5843 5843 5843 5841 5840 5838 5834 5832 5829 5828 5826 5823 5817 5812 5808 5803 5798 5793 5786
5815 5817 5819 5821 5822 5824 5826 5827 5828 5829 5830 5832 5833 5834 5835 5835 5836 5836 5836 5838 5838 5838 5838 5839 5838 5838 5837 5837 5836 5835 5833 5831 5827 5823 5819 5816 5815 5814 5806 5802 5797 5790 5785 5779 5770
5816 5817 5818 5820 5821 5823 5824 5825 5826 5827 5828 5829 5830 5831 5831 5832 5832 5832 5833 5833 5833 5833 5833 5832 5833 5833 5831 5830 5829 5827 5824 5822 5819 5816 5810 5805 5804 5804 5794 5789 5783 5777 5771 5762 5755
5815 5816 5817 5818 5820 5819 5821 5822 5823 5824 5825 5825 5826 5827 5827 5828 5828 5828 5828 5828 5828 5827 5827 5827 5826 5825 5825 5823 5821 5819 5817 5813 5809 5805 5802 5795 5794 5792 5782 5776 5769 5764 5754 5746 5739
5814 5814 5815 5816 5817 5817 5817 5818 5819 5820 5820 5821 5822 5822 5822 5823 5824 5823 5823 5823 5822 5822 5822 5821 5820 5818 5817 5816 5813 5811 5808 5804 5799 5795 5793 5784 5786 5774 5769 5760 5754 5747 5740 5732 5724
5812 5813 5813 5813 5814 5814 5815 5815 5816 5816 5817 5817 5818 5818 5818 5818 5818 5818 5818 5817 5817 5816 5814 5813 5812 5810 5808 5805 5803 5801 5799 5795 5789 5785 5778 5776 5771 5769 5754 5745 5740 5734 5727 5719 5710
5809 5809 5810 5810 5811 5811 5812 5812 5812 5812 5813 5813 5813 5813 5813 5812 5812 5812 5811 5811 5810 5808 5806 5804 5804 5801 5799 5795 5792 5790 5788 5783 5778 5774 5763 5767 5755 5754 5742 5736 5729 5721 5713 5704 5695
5805 5806 5806 5806 5807 5807 5807 5807 5807 5807 5808 5807 5807 5807 5806 5806 5805 5804 5803 5802 5801 5800 5797 5795 5793 5790 5789 5785 5780 5778 5778 5771 5766 5763 5754 5749 5745 5737 5730 5723 5716 5707 5698 5691 5682
5800 5800 5801 5801 5801 5802 5802 5802 5802 5802 5802 5801 5801 5800 5799 5798 5797 5796 5794 5793 5792 5790 5787 5785 5781 5777 5776 5774 5767 5766 5765 5761 5755 5750 5742 5736 5729 5720 5715 5709 5702 5692 5684 5676 5667